Sigil TimeFrame

Sigil TimeFrame ⇒ XML

NameTime LeftWindow OpensKilledCrew
Quiver, The Renegade1d 10:102018-05-21 18:29:002018-04-29 03:31:00•Invi†cus Mortem•
Kretok, Descendant of Nature1d 03:462018-05-22 00:53:002018-04-28 05:22:00The Truly Terrible Ten
Numerocure, The Black Messenger of Evil0d 18:472018-05-22 09:52:002018-05-01 22:14:00SAVAGE [COES4]
Hackerphage, Protector of the Gateway0d 17:152018-05-22 11:24:002018-05-03 04:55:00SAVAGE [COES4]
Lady Ariella0d 17:122018-05-22 11:27:002018-05-02 16:36:00[Fate] Breakaway
Anvilfist0d 17:092018-05-22 11:30:002018-04-30 22:39:00Where's The Loot At ?!
Zertan, The Collector0d 15:542018-05-22 12:45:002018-05-03 02:09:00Not Losters RGA
Nar Zhul, Slayer of All0d 14:532018-05-22 13:46:002018-05-03 21:27:00The Order
Ormsul the Putrid0d 14:352018-05-22 14:04:002018-05-02 06:08:00The Fluffy Savages
Bolkor, the Holy Master0d 14:042018-05-22 14:35:002018-05-02 15:30:00Transformers
Crane0d 10:162018-05-22 18:23:002018-05-04 06:05:00Sigil
Volgan the Living Ironbark0d 07:162018-05-22 21:23:002018-05-02 07:33:00[Fate] Megatron
Varsanor, Master of Darkness0d 06:502018-05-22 21:49:002018-04-30 23:28:00The Order
Terrance, Rebel of Rallis0d 06:142018-05-22 22:25:002018-05-02 09:42:00Not Losters RGA
Tylos, The Lord Master0d 03:412018-05-23 00:58:002018-05-02 20:53:00Harvester Of Sorrow
Skarthul the Avenged0d 03:352018-05-23 01:04:002018-05-03 07:41:00Fate
Lord Sibannac0d 02:142018-05-23 02:25:002018-05-03 02:57:00.::BRUTE-FORCE::.
Lord Xordam0d 01:592018-05-23 02:40:002018-05-01 09:32:00• Rev†vaL •
Garland, The Lord Keeper0d 01:332018-05-23 03:06:002018-05-04 04:19:00Latvija
Rotborn, Eater of the Dead0d 00:382018-05-23 04:01:002018-05-03 04:58:00[Fate] Ironhide
Baron Mu, Dark Rider of the Undead0d 00:302018-05-23 04:09:002018-05-04 05:50:00SAVAGE [BARON]
Nessam0d 00:082018-05-23 04:31:002018-05-03 17:25:00•| Dark Prophecy |•
Viserion, the Necrodragon0d 01:152018-05-23 05:55:002018-04-29 12:50:00Fate
Shadow0d 01:232018-05-23 06:03:002018-05-03 02:58:00• Rev†vaL •
Jorun the Blazing Swordsman0d 01:402018-05-23 06:20:002018-05-03 11:15:00[Fate] Optimus
Nayark the Mummified Sorcerer0d 02:172018-05-23 06:57:002018-05-03 19:41:00SAVAGE [ASTRAL4]
Wanhiroeaz the Devourer0d 02:432018-05-23 07:23:002018-05-03 17:40:00Harvester Of Sorrow
Vitkros, Hydra of the Deep0d 02:512018-05-23 07:31:002018-05-04 04:25:00Latvija
Ancient Magus Tarkin0d 04:312018-05-23 09:11:002018-05-03 09:11:00[Fate] Sqweeks
Howldroid, Tormentor of the Pit0d 04:562018-05-23 09:36:002018-05-04 01:54:00SAVAGE [COES2]
Sigil, Lich of Woe0d 05:132018-05-23 09:53:002018-04-30 21:12:00The Order
Esquin, the Kinetic Master0d 08:402018-05-23 13:20:002018-04-29 20:47:00The Truly Terrible Ten
Freezebreed, The Frozen Manipulator0d 09:032018-05-23 13:43:002018-05-03 14:26:00[Fate] Soundwave
Synge, The Red Dragon0d 13:232018-05-23 18:03:002018-05-03 11:19:00• Rev†vaL •
Lord Varan0d 13:272018-05-23 18:07:002018-05-03 15:02:00[Fate] Breakaway
Threk, King of Lords0d 14:132018-05-23 18:53:002018-05-02 01:27:00TeddyPain Production's
Ebliss, Fallen Angel of Despair0d 14:142018-05-23 18:54:002018-05-03 21:17:00SAVAGE [POT2]
Traxodon the Plaguebringer0d 14:322018-05-23 19:12:002018-05-01 12:37:00TeddyPain Production's
Rancid, Lord of Thugs0d 14:542018-05-23 19:34:002018-05-03 17:43:00Harvester Of Sorrow
Mistress of the Sword0d 16:472018-05-23 21:27:002018-05-03 13:26:00Not Losters RGA
Tsort0d 22:192018-05-24 02:59:002018-05-03 07:14:00Sigil
Archdevil Yirkon0d 23:052018-05-24 03:45:002018-05-02 03:42:00SAVAGE [ASTRAL3]
Lord Suka0d 23:132018-05-24 03:53:002018-05-01 21:05:00SAVAGE [POT1]
Zikkir the Dark Archer0d 23:272018-05-24 04:07:002018-05-03 00:35:00SAVAGE [ASTRAL3]
Sarcrina the Astral Priestess0d 23:362018-05-24 04:16:002018-05-02 13:45:00[Fate] Sqweeks
Dreg nor, Keeper of the Infernal Essence1d 00:332018-05-24 05:13:002018-05-02 23:15:00Emailcash Crew
Brutalitar, Lord of the Underworld1d 02:512018-05-24 07:31:002018-05-02 09:08:00[Fate] Hound
Lord Narada1d 05:312018-05-24 10:11:002018-05-04 02:56:00[Fate] Breakaway
Hyrak, Bringer of Nightmares1d 05:432018-05-24 10:23:002018-05-03 08:03:00XXxxHoTMoROxxXX
Melt Bane, The Forbidden Demon Dragon1d 06:172018-05-24 10:57:002018-05-03 18:56:00SAVAGE [COES4]
Anguish1d 08:072018-05-24 12:47:002018-05-02 01:06:00Sigil
Amalgamated Apparition1d 08:162018-05-24 12:56:002018-05-03 21:48:00SAVAGE [ASTRAL3]
Slashbrood, Devourer of the Blackness1d 08:312018-05-24 13:11:002018-04-29 13:05:00[Fate] Ironhide
Ag Nabak the Abomination1d 09:302018-05-24 14:10:002018-05-01 01:04:00.::BRUTE-FORCE::.
Gnorb1d 09:432018-05-24 14:23:002018-05-02 05:12:00• AfterShock •_1
Pinosis1d 09:452018-05-24 14:25:002018-05-03 21:57:00• Rev†vaL •
King Ashnar, Lord of the Unliving1d 13:022018-05-24 17:42:002018-05-01 20:13:00[Fate] Drift
Bloodchill the Grizzly1d 13:262018-05-24 18:06:002018-05-03 09:40:00• AfterShock •_1
Emperor Neudeus, Controller of the Universe1d 14:452018-05-24 19:25:002018-05-01 06:47:00[Fate] Barricade
Gorganus of the Wood1d 17:102018-05-24 21:50:002018-05-02 20:36:00Where's The Loot At ?!
Raiyar, the Shadow Master1d 17:572018-05-24 22:37:002018-05-03 22:23:00SAVAGES
Lady Chaos, Queen of the Abyss1d 19:162018-05-24 23:56:002018-05-02 15:54:00[Fate] Bonecrusher
Ganja the Stone Golem1d 19:232018-05-25 00:03:002018-05-03 11:55:00•| Dark Prophecy |•
Smoot the Yeti1d 19:262018-05-25 00:06:002018-05-03 21:29:00•| Dark Prophecy |•
Detox1d 22:002018-05-25 02:40:002018-05-02 12:57:00•| Dark Prophecy |•
Murderface1d 23:462018-05-25 04:26:002018-05-03 03:19:00• Rev†vaL •
Samatha Dark-Soul2d 01:212018-05-25 06:01:002018-05-02 13:27:00• Rev†vaL •
The Emerald Assassin2d 03:482018-05-25 08:28:002018-05-02 12:21:00Dominating Penguins
Akkel the Enflamed Warrior2d 04:282018-05-25 09:08:002018-05-02 21:03:00SAVAGE [ASTRAL2]
Great Lord Ganeshan2d 05:212018-05-25 10:01:002018-05-02 07:13:00[Fate] Breakaway
Balerion, Dragon of Dread2d 12:032018-05-25 16:43:002018-04-29 02:54:00SAVAGES
Crolvak, the Fire Master2d 13:232018-05-25 18:03:002018-05-03 23:19:00The Terrible Ten
Grivvek, Protector of the Brood2d 13:362018-05-25 18:16:002018-05-03 15:58:00Pure and Driven
Jazzmin, Maiden of Vitality2d 15:092018-05-25 19:49:002018-05-03 07:04:00Dominating Penguins
Dlanod, the Crazed Chancellor2d 17:052018-05-25 21:45:002018-05-03 01:24:00SAVAGES
Sylvanna TorLai2d 17:112018-05-25 21:51:002018-04-30 18:37:00The Fluffy Savages
Windstrike The Vile2d 18:032018-05-25 22:43:002018-04-29 09:26:00Hero Academia
Nafir, God of Desolation2d 23:212018-05-26 04:01:002018-05-03 03:52:00The Terrible Ten
Keeper of Nature3d 00:012018-05-26 04:41:002018-05-01 02:10:00SAVAGE [ASTRAL3]
Skybrine The Inescapable3d 10:352018-05-26 15:15:002018-04-29 09:46:00~ White Sands Fortress ~
Xynak, the Arcane Master3d 14:592018-05-26 19:39:002018-04-29 16:33:00•Ou†war Immor†als•
Crantos, Defender of Ultimation4d 05:002018-05-27 09:40:002018-04-29 16:28:00The Order
Lacuste of the Swarm4d 09:572018-05-27 14:37:002018-05-03 19:15:00SAVAGE
Q-SEC Commander4d 12:332018-05-27 17:13:002018-05-02 14:40:00Phoenix Rising
Karvaz, Lord of Alsayic4d 16:282018-05-27 21:08:002018-05-03 01:51:00SAVAGES
Felroc, Overseer of Hellfire5d 02:022018-05-28 06:42:002018-05-03 09:25:00Hero Academia
Straya, the Underworld Ruler5d 06:062018-05-28 10:46:002018-05-02 09:50:00SAVAGES
Kro Shuk, Doomslayer5d 08:162018-05-28 12:56:002018-05-01 08:11:00Emailcash Crew
Old World Drake64d 14:512018-03-19 13:48:002018-03-15 01:48:00The Immortal Legion
Jade Dragonite64d 14:452018-03-19 13:54:002018-03-15 01:54:00The Immortal Legion
Animated Captain30d 09:182018-04-22 19:21:002018-04-17 13:21:00Phoenix Rising
91 Gods, Last update: 2018-05-23 03:15:02